{"data":{"norad_id":66117,"epoch":"2026-09-20T10:34:15.443328Z","epoch_age_seconds":105562,"freshness":"FRESH","line1":"1 66117U 25237D   26263.44045652  .00012796  00000+0  38890-3 0  9994","line2":"2 66117  53.1577 213.9014 0001371  93.3311 266.7849 15.34425878 52447","mean_motion":15.34425878,"eccentricity":0.0001371,"inclination_deg":53.1577,"raan_deg":213.9014,"arg_perigee_deg":93.3311,"mean_anomaly_deg":266.7849,"bstar":0.0003889,"rev_number":5244,"period_min":93.846175344548,"perigee_km":461.68845776648,"apogee_km":463.56419507059,"semimajor_km":6840.7633264185,"source":"CELESTRAK","updated_at":"2026-09-21T09:00:35.806766Z"}}